Location: Brest
(52.1000°N, 23.7000°E)
Time: 21:50:54
(UTC+03:00)

ISS - Visible Passes

Search period start: 20 July 2017 00:00
Search period end: 30 July 2017 00:00
Orbit: 400 x 408 km, 51.6° (Epoch: 20 July)

Date Brightness Start Highest point End Pass type
(mag) Time Alt. Az. Time Alt. Az. Time Alt. Az.
20 Jul -1.6 00:47:38 15° E 00:47:38 15° E 00:48:23 10° E visible
20 Jul -4.0 02:20:15 29° WSW 02:21:45 74° S 02:25:01 10° E visible
20 Jul -3.9 03:54:56 10° W 03:58:11 76° S 04:01:28 10° ESE visible
21 Jul -3.9 01:29:21 59° S 01:29:28 60° SSE 01:32:42 10° E visible
21 Jul -4.0 03:02:37 10° W 03:05:53 84° S 03:09:09 10° E visible
21 Jul -3.4 04:39:07 10° W 04:42:13 42° SSW 04:45:20 10° SE visible
22 Jul -3.0 00:38:09 33° ESE 00:38:09 33° ESE 00:40:21 10° E visible
22 Jul -4.0 02:10:43 13° W 02:13:33 84° S 02:16:50 10° E visible
22 Jul -3.8 03:46:46 10° W 03:49:58 57° SSW 03:53:11 10° ESE visible
22 Jul -3.1 23:42:04 10° SW 23:45:00 31° SSE 23:47:56 10° E visible
23 Jul -4.0 01:17:59 10° WSW 01:21:14 78° S 01:24:30 10° E visible
23 Jul -4.0 02:54:25 10° W 02:57:40 71° SSW 03:00:56 10° ESE visible
23 Jul -2.8 04:31:03 10° W 04:33:51 26° SSW 04:36:37 10° SSE visible
23 Jul -2.6 22:50:15 10° SSW 22:52:49 22° SSE 22:55:23 10° E visible
24 Jul -4.0 00:25:41 10° WSW 00:28:55 65° SSE 00:32:09 10° E visible
24 Jul -4.0 02:02:04 10° W 02:05:20 82° S 02:08:37 10° E visible
24 Jul -3.3 03:38:35 10° W 03:41:38 37° SSW 03:44:40 10° SE visible
24 Jul -3.7 23:33:26 10° SW 23:36:36 49° SSE 23:39:46 10° E visible
25 Jul -4.0 01:09:42 10° W 01:12:59 85° S 01:16:15 10° E visible
25 Jul -3.8 02:46:10 10° W 02:49:22 51° SSW 02:52:33 10° ESE visible
25 Jul -2.2 04:23:20 10° WSW 04:25:19 15° SW 04:27:18 10° S visible
25 Jul -3.3 22:41:19 10° SW 22:44:19 35° SSE 22:47:20 10° E visible
26 Jul -4.0 00:17:21 10° W 00:20:36 81° S 00:23:52 10° E visible
26 Jul -3.7 01:53:48 10° W 01:56:32 55° WSW 01:56:32 55° WSW visible
26 Jul -4.0 23:25:00 10° WSW 23:28:14 70° SSE 23:31:30 10° E visible
27 Jul -4.0 01:01:25 10° W 01:04:40 79° S 01:05:05 64° ESE visible
27 Jul -3.8 22:32:42 10° WSW 22:35:53 55° SSE 22:39:05 10° E visible
28 Jul -4.0 00:09:01 10° W 00:12:16 85° S 00:14:02 25° E visible
28 Jul -1.9 01:45:29 10° W 01:46:38 19° W 01:46:38 19° W visible
28 Jul -4.0 23:16:36 10° W 23:19:52 83° S 23:23:06 10° E visible
29 Jul -3.5 00:53:03 10° W 00:55:43 50° WSW 00:55:43 50° WSW visible
29 Jul -3.9 22:24:12 10° WSW 22:27:27 74° S 22:30:43 10° E visible
